SCP
0 0 0 0 0 0 0 0 0 0 0 0 0 0 -0 -0 -0 0 0 0 0 0 0 -0 0 0 -0 -0 0 -0 -0 0 0 0 0 0 0 0 0 0 0 0 0 0 0 0 0 0 0 0 0 0 0 0
0 0 0 0 0 0 0 0 0 0 0 0 0 -0 -0 -0 -0 0 0 0 0 0 -0 0 0 -0 -0 -0 0 -0 -0 0 0 0 0 0 0 0 0 0 0 0 0 0 0 0 0 0 0 0 0 0 0 0
0 0 0 0 0 0 0 0 0 0 0 0 -0 -0 -0 -0 -0 0 0 0 0 0 -0 -0 0 0 0 0 -0 -0 0 0 0 0 0 0 0 0 0 0 0 0 0 0 0 0 0 0 0 0 0 0 0 0
0 0 0 0 0 0 0 0 0 0 0 0 -0 -0 0 0 0 0 0 0 0 0 -0 -0 -0 0 0 0 0 0 0 0 0 0 0 0 0 0 0 0 0 0 0 0 0 0 0 0 0 0 0 0 0 0
0 0 0 0 0 0 0 0 0 0 0 0 -0 -0 -0 0 0 0 0 -0 0 0 0 0 0 0 0 -0 0 0 0 0 0 0 0 0 0 0 0 0 0 0 0 0 0 0 0 0 0 0 0 0 0 0
0 0 0 0 0 0 0 0 0 0 0 0 -0 -0 -0 0 0 0 0 -0 0 0 0 0 0 0 0 0 -0 -0 -0 0 0 0 0 0 -0 0 0 0 0 0 0 0 0 0 0 0 0 0 0 0 0 0
0 0 0 0 0 0 0 0 0 0 0 -0 -0 -0 -0 0 0 0 0 0 0 -0 0 0 -0 0 0 0 -0 -0 -0 -0 0 0 0 0 0 0 0 0 -0 0 0 0 0 0 0 0 0 0 0 0 0 0
0 0 0 0 0 0 0 0 0 0 -0 -0 -0 -0 -0 0 0 0 0 0 0 0 -0 0 0 0 0 0 0 0 0 -0 0 0 0 0 0 0 0 0 0 0 0 0 0 0 0 0 0 0 0 0 0 0
0 0 0 0 0 0 0 0 0 -0 -0 -0 -0 -0 0 0 0 0 0 0 0 0 0 0 0 0 0 0 -0 0 0 0 0 0 0 0 0 0 0 0 0 0 0 0 0 0 0 0 0 0 0 0 0 0
0 0 0 0 0 0 0 0 -0 -0 -0 -0 0 0 0 0 0 0 -0 -0 -0 -0 0 0 0 0 0 0 0 0 0 0 0 0 0 0 0 -0 0 0 0 0 0 0 0 0 0 0 0 0 0 0 0 0
0 0 0 0 0 0 0 0 -0 -0 0 0 0 0 0 0 0 0 -0 0 -0 0 0 0 0 0 0 0 0 0 0 0 0 0 0 0 0 0 0 0 0 0 0 0 0 0 0 0 0 0 0 0 0 0
0 0 0 0 0 0 0 0 0 0 0 0 0 0 0 0 -0 0 0 0 0 0 0 0 0 0 0 0 0 -0 0 0 0 0 0 0 -0 0 -0 0 0 0 0 0 0 0 0 0 0 0 0 0 0 0
0 0 0 0 0 0 0 0 0 0 0 0 0 0 -0 -0 0 0 0 0 0 0 0 0 0 0 -0 0 0 0 0 0 0 0 0 0 0 -0 0 0 0 0 0 0 0 0 0 0 0 0 0 0 0 0
0 0 0 0 0 0 0 0 0 0 0 0 0 0 0 -0 0 0 0 0 0 0 0 0 0 0 0 0 0 0 0 0 0 0 0 -0 -0 0 0 0 -0 -0 0 0 0 0 0 0 0 0 0 0 0 0
0 0 0 0 0 0 0 0 0 0 0 0 0 0 -0 -0 -0 0 0 0 0 0 0 0 0 0 0 0 0 0 0 0 0 0 0 0 0 0 0 0 0 0 0 0 0 0 0 0 0 0 0 0 0 0
0 0 0 0 0 0 0 0 0 0 0 0 0 -0 0 0 0 0 0 0 0 0 0 0 0 0 0 0 0 0 0 0 0 0 0 0 0 0 -0 0 0 0 0 0 0 0 0 0 0 0 0 0 0 0
0 0 0 0 0 -0 0 0 0 0 0 0 0 0 0 0 0 0 0 -0 0 0 0 0 0 0 0 0 0 0 0 0 0 0 0 0 0 0 0 0 0 0 0 0 0 0 0 0 0 0 0 0 0 0
0 0 0 0 0 0 0 0 0 0 0 0 0 -0 0 0 0 0 -0 0 0 0 0 0 0 0 0 0 0 0 0 0 0 0 0 0 0 0 0 0 0 0 0 0 0 0 0 0 0 0 0 0 0 0
0 0 0 0 0 0 0 0 0 0 0 -0 -0 0 0 0 -0 0 0 0 0 -0 -0 0 0 0 0 0 0 0 0 0 0 0 0 0 0 0 0 0 0 0 0 0 0 0 0 0 0 0 0 0 0 0
0 0 0 0 0 0 0 0 0 0 0 0 0 0 0 0 -0 -0 0 -0 0 0 0 0 0 0 0 0 0 0 0 0 0 0 0 0 0 0 0 0 0 0 0 0 0 0 0 0 0 0 0 0 0 0
0 0 0 0 0 0 0 0 0 0 0 0 -0 0 -0 -0 -0 -0 0 -0 0 0 0 0 0 0 0 0 0 0 0 0 0 0 0 0 0 0 0 0 0 0 0 0 0 0 0 0 0 0 0 0 0 0
0 0 0 0 0 0 0 0 0 0 0 0 0 0 0 0 0 -0 0 0 0 0 0 0 0 0 0 0 0 0 0 0 0 0 0 0 0 0 0 0 0 0 0 0 0 0 0 0 0 0 0 0 0 0
0 0 0 0 0 0 0 0 0 0 0 0 -0 0 0 0 0 0 0 0 0 0 0 0 0 0 0 0 0 0 0 0 0 0 0 0 0 0 0 0 0 0 0 0 0 0 0 0 0 0 0 0 0 0
0 0 0 0 0 0 0 0 0 0 0 0 0 0 0 0 0 0 0 0 0 0 0 0 0 0 0 0 0 0 0 0 0 0 0 0 0 0 0 0 0 0 0 0 0 0 0 0 0 0 0 0 0 0
0 0 0 0 0 0 0 0 0 0 0 0 0 0 0 0 0 0 0 0 0 0 0 0 0 0 0 0 0 0 0 0 0 0 0 0 0 0 0 0 0 0 0 0 0 0 0 0 0 0 0 0 0 0
0 0 0 0 0 0 0 0 0 0 0 0 0 0 0 0 0 0 0 0 0 0 0 0 0 0 0 0 0 0 0 0 0 0 0 0 0 0 0 0 0 0 0 0 0 0 0 0 0 0 0 0 0 0
0 0 0 0 0 0 0 0 0 0 -0 0 0 0 0 0 0 0 0 0 0 0 0 0 0 0 0 0 0 0 0 0 0 0 0 0 0 0 0 0 0 0 0 0 0 0 0 0 0 0 0 0 0 0
0 0 0 -0 0 0 0 0 0 0 0 0 0 0 0 0 0 0 0 0 0 0 0 0 0 0 0 0 0 0 0 0 0 0 0 0 0 0 0 0 0 0 0 0 0 0 0 0 0 0 0 0 0 0
0 0 0 -0 0 0 0 0 0 0 0 0 0 0 0 0 0 0 0 0 0 0 0 0 0 0 0 0 0 0 0 0 0 0 0 0 0 0 0 0 0 0 0 0 0 0 0 0 0 0 0 0 0 0
-0 0 0 0 0 0 0 0 0 0 0 0 0 0 0 0 0 0 0 0 0 0 0 0 0 0 0 0 0 0 0 0 0 0 0 0 0 0 0 0 0 0 0 0 0 0 0 0 0 0 0 0 0 0
0 0 0 0 0 0 0 0 0 0 0 0 0 0 0 0 0 0 0 0 0 0 0 0 0 0 0 0 0 0 0 0 0 0 0 0 0 0 0 0 0 0 0 0 0 0 0 0 0 0 0 0 0 0
0 0 0 0 0 0 0 0 0 0 0 0 0 0 0 0 0 0 0 0 0 0 0 0 0 0 0 0 0 0 0 -0 -0 0 0 0 0 0 0 0 0 0 0 0 0 0 0 0 0 0 0 0 0 0
0 0 0 0 0 0 0 0 0 0 0 0 0 0 0 0 0 0 0 0 0 0 0 0 0 0 0 -0 -0 -0 0 0 0 0 0 0 0 0 0 0 0 0 0 0 0 0 0 0 0 0 0 0 0 0
Wind_Speed_500mb
14 8 11 17 23 29 36 40 42 37 33 31 27 14 10 14 15 13 5 11 4 7 4 16 20 22 22 15 7 5 6 10 6 3 6 3 3 3 1 5 5 7 8 4 4 3 6 11 6 1 6 8 21 28
13 8 12 18 23 30 37 40 41 33 31 27 27 15 10 10 11 10 16 14 8 3 12 12 5 6 22 28 29 12 7 8 4 7 3 4 2 0 3 3 8 7 8 8 12 9 6 11 24 15 10 20 24 17
11 9 14 19 25 33 38 41 38 28 28 24 26 17 10 6 7 4 13 19 14 15 21 10 4 6 13 13 11 12 12 7 6 1 11 5 2 7 3 2 5 13 3 6 5 3 13 20 14 11 15 17 11 11
9 11 16 20 28 35 39 41 34 25 25 24 26 17 7 7 5 3 8 14 14 3 7 11 17 12 6 17 3 6 5 3 3 5 2 5 3 2 2 5 7 4 7 4 6 8 11 14 21 18 19 17 24 23
10 13 17 23 30 36 39 38 30 24 26 25 26 16 6 7 6 5 4 3 12 3 7 11 17 8 5 4 6 8 10 8 1 4 5 2 2 6 6 7 7 8 2 6 5 3 11 4 14 15 30 26 18 10
10 14 19 26 33 38 39 35 25 25 27 27 22 11 6 6 3 2 8 5 9 12 6 5 12 21 8 3 4 5 3 8 7 5 8 8 9 4 6 5 10 10 28 17 6 14 25 28 24 16 17 12 9 17
9 15 22 29 35 38 37 32 23 25 28 24 11 7 7 5 5 1 2 2 8 17 2 4 4 13 16 12 8 8 1 3 8 9 12 11 23 15 5 4 8 16 11 12 10 11 7 12 12 8 3 6 14 15
12 18 25 32 37 38 33 26 20 23 27 14 7 2 11 6 5 3 4 5 10 7 4 6 6 4 18 8 8 11 11 5 7 11 9 9 10 9 6 7 5 23 4 5 2 2 4 9 14 12 13 11 10 14
16 23 29 34 37 34 30 19 20 26 19 11 2 7 11 4 1 3 8 5 10 7 2 5 7 5 4 5 2 1 6 5 6 9 6 10 7 8 9 23 33 25 13 19 16 16 10 2 9 20 21 15 16 19
18 25 31 34 34 30 26 21 20 17 13 7 6 3 2 2 7 8 4 3 3 3 2 6 3 1 6 6 3 2 2 6 5 0 12 7 2 7 25 39 20 8 6 15 12 10 9 14 13 10 15 23 23 19
24 29 33 35 30 28 23 20 19 13 11 8 6 3 4 3 1 3 4 3 1 6 6 3 5 1 1 4 6 4 4 2 6 4 7 7 7 8 30 44 13 10 13 24 21 19 19 7 20 20 25 22 22 20
27 31 33 28 25 26 17 16 17 15 9 3 4 6 4 2 2 2 4 5 8 3 5 4 8 8 5 4 2 4 5 8 5 7 7 4 8 20 24 31 36 24 17 24 25 13 17 20 22 22 25 28 22 31
28 31 29 17 28 23 10 10 13 10 7 3 4 1 5 2 12 4 3 7 6 5 13 23 14 12 5 4 1 6 6 3 22 6 6 8 11 4 16 18 21 23 27 29 29 29 22 20 21 21 22 17 31 41
30 30 14 24 24 15 9 6 6 5 6 5 2 8 3 6 4 3 7 6 8 7 13 16 10 4 6 4 1 5 5 9 6 5 6 7 19 6 7 15 14 17 20 22 24 25 22 28 28 28 17 26 31 31
29 18 15 27 18 8 10 6 7 7 5 4 3 2 2 5 10 17 29 26 15 13 17 15 8 3 6 5 7 9 9 5 5 5 6 19 17 7 9 7 9 17 25 26 20 18 24 22 25 30 31 32 36 35
24 21 29 28 15 3 13 12 11 8 6 4 6 8 14 27 24 30 26 21 21 15 14 4 2 4 2 5 10 7 5 1 4 7 24 25 18 13 11 10 18 20 27 28 24 21 20 31 30 32 22 32 33 32
19 25 28 22 8 15 11 15 12 3 4 2 5 24 28 19 17 20 19 22 13 10 3 5 1 1 6 7 4 5 7 5 14 20 21 24 19 6 11 17 21 21 25 27 19 14 29 26 27 22 20 24 25 24
23 19 22 15 11 13 15 10 4 4 1 12 13 15 18 15 12 8 12 18 5 8 10 3 10 7 6 3 3 1 18 14 13 19 3 21 22 11 18 19 23 27 32 33 38 32 24 20 23 23 24 27 25 33
22 17 17 11 7 4 4 3 6 6 7 12 11 10 10 20 11 5 5 8 9 11 14 6 9 4 3 10 22 20 18 15 13 17 18 11 6 21 25 25 32 33 47 28 13 3 5 7 13 16 26 29 30 33
13 14 9 12 10 6 5 4 6 6 5 5 5 15 20 10 3 2 7 8 13 9 14 7 5 23 26 21 18 17 10 10 14 18 19 23 32 32 34 32 25 23 13 15 13 9 7 8 15 20 18 17 17 24
10 11 13 12 16 14 5 8 5 6 5 5 5 5 3 5 7 11 5 9 4 6 6 18 33 28 18 14 8 2 9 16 27 23 25 26 19 8 9 9 7 7 8 10 12 18 19 21 21 24 32 35 32 33
15 13 15 13 10 7 2 6 5 7 3 4 3 3 2 7 13 4 8 5 9 14 23 29 22 20 16 13 7 6 1 2 6 8 8 7 7 6 6 10 8 10 13 21 29 27 25 26 31 36 39 45 47 44
10 9 7 7 3 4 3 7 5 3 0 3 2 2 2 6 4 5 3 4 12 24 24 26 29 23 26 28 19 16 16 6 6 4 15 14 10 5 4 2 4 7 11 24 39 38 33 35 37 38 37 38 36 38
10 5 5 6 4 4 3 5 4 5 3 2 2 4 4 4 5 8 9 18 38 44 41 31 24 23 14 12 13 10 8 8 9 16 16 8 3 10 7 4 10 21 35 40 40 39 39 35 29 30 35 36 39 42
6 5 5 5 5 4 6 6 3 3 4 2 3 4 1 4 3 6 4 4 23 27 25 21 20 19 15 7 5 6 7 14 22 17 6 3 2 5 9 15 27 40 44 46 41 32 30 30 31 29 31 37 46 48
5 1 3 7 9 6 7 6 3 5 2 1 4 6 6 5 3 8 6 13 9 8 11 17 19 14 4 3 1 5 13 17 17 19 16 18 21 24 26 31 40 44 45 46 46 40 41 43 40 43 49 54 55 46
5 5 5 4 6 9 9 12 6 4 2 4 3 6 5 6 9 4 14 9 2 2 6 9 12 9 6 11 8 4 7 15 21 22 21 24 25 28 31 38 43 41 40 36 33 34 37 41 47 53 62 63 53 47
6 8 4 20 14 12 5 6 4 4 7 8 6 9 4 4 2 6 3 6 7 10 7 4 7 8 11 9 3 6 15 21 22 23 19 17 25 33 44 50 48 52 51 47 55 56 59 63 65 75 68 58 53 52
6 12 10 10 9 3 4 3 5 8 9 7 5 3 6 12 18 15 10 10 11 9 19 23 24 17 13 11 18 24 31 36 39 42 42 43 49 57 64 64 60 63 68 67 68 67 67 74 79 70 61 53 49 47
5 6 5 7 4 4 9 9 15 12 7 7 4 2 24 22 24 26 23 18 14 19 19 14 7 3 10 14 14 12 14 19 25 31 38 48 57 64 68 71 70 69 70 68 71 76 76 64 56 44 46 54 45 32
8 3 1 4 4 8 12 21 18 12 8 10 11 16 27 25 32 33 34 26 17 10 4 9 16 23 29 35 39 41 45 47 49 53 59 60 65 68 66 64 66 66 66 66 69 68 58 56 56 55 59 52 43 46
11 3 2 3 15 21 22 25 17 19 25 25 27 22 27 16 11 15 38 27 23 26 30 30 35 40 46 48 52 58 59 57 56 62 69 64 52 55 66 62 60 67 64 58 67 64 65 67 61 65 47 46 51 46
14 19 16 13 10 11 23 19 12 9 14 16 32 12 31 15 14 9 31 38 34 35 39 42 42 48 52 46 43 44 55 76 62 48 49 54 64 57 59 63 66 66 64 73 71 67 67 65 59 54 59 56 50 47
Wind_Direction_500mb
233 253 300 311 325 336 340 340 341 341 343 348 351 341 334 342 6 29 110 61 15 64 114 190 179 181 196 170 143 1 343 246 3 50 104 242 126 241 130 250 192 149 134 160 99 210 291 6 37 220 184 111 124 123
236 271 297 312 325 336 338 339 340 338 340 347 350 341 316 342 2 47 94 55 348 245 105 121 202 267 230 225 213 276 292 287 71 87 76 113 203 162 155 287 19 50 170 180 173 221 208 81 117 118 128 133 140 133
244 285 302 310 329 336 336 337 336 332 339 344 349 338 305 318 344 9 87 54 102 149 175 194 161 159 169 182 239 245 218 229 171 93 169 179 102 130 95 313 82 346 80 84 98 295 164 128 119 149 170 141 131 145
264 288 301 319 332 332 334 334 333 331 337 337 341 325 294 286 301 149 94 56 84 102 128 230 167 166 171 190 227 12 87 172 96 224 131 98 113 107 102 135 94 278 10 44 8 22 152 173 179 172 139 134 130 118
269 285 311 327 328 329 332 332 331 331 334 330 332 318 262 258 267 216 195 115 62 42 182 161 190 206 314 196 318 354 27 46 229 151 82 143 70 65 50 83 24 2 236 100 226 348 98 67 153 162 122 113 106 88
267 300 325 326 326 331 331 332 330 329 328 323 322 310 233 231 230 328 151 155 36 11 179 162 175 190 160 162 113 101 84 54 38 71 98 78 41 105 93 102 350 77 81 87 114 84 106 108 105 110 114 110 54 353
286 325 324 323 329 330 332 331 323 324 324 321 313 301 189 181 163 132 139 303 356 356 168 92 210 195 197 232 239 241 160 41 69 65 59 53 10 30 64 101 17 70 104 105 111 114 89 186 157 159 282 308 329 328
331 323 322 328 330 333 333 325 318 324 328 320 277 253 162 158 171 176 52 274 328 341 241 121 254 184 195 226 220 219 208 182 66 91 52 62 48 34 43 292 331 2 106 113 38 211 184 193 194 221 245 265 283 276
334 324 324 329 333 333 332 320 324 337 329 320 277 140 154 148 32 276 315 277 279 287 339 60 140 229 351 359 243 146 182 73 93 79 70 73 357 29 278 316 322 9 98 88 56 41 38 312 263 256 252 262 254 214
317 321 326 332 335 337 336 331 339 359 31 46 75 59 132 179 290 287 258 244 237 223 139 44 24 4 48 42 17 335 99 153 100 167 102 73 263 278 9 357 336 157 167 358 338 328 299 270 288 322 255 260 258 248
320 327 334 338 338 337 333 339 354 16 46 46 14 347 46 78 253 288 286 199 197 39 88 73 46 50 335 79 233 222 185 138 95 214 97 21 321 282 4 20 350 220 288 315 295 270 244 291 297 287 281 275 264 279
326 331 333 334 335 333 324 333 4 23 19 355 310 354 20 320 258 60 276 338 60 193 35 33 349 332 299 300 17 350 77 28 82 94 85 162 254 284 342 11 36 37 31 37 31 344 270 311 277 306 290 277 254 319
329 328 329 333 336 330 290 320 359 359 7 56 49 36 350 253 39 357 42 346 30 41 18 16 355 347 284 264 39 78 78 202 132 65 148 217 265 318 352 358 354 10 11 8 7 5 351 3 5 343 314 297 277 308
329 329 329 338 335 325 232 274 345 11 16 2 274 341 127 348 52 165 162 176 89 52 7 357 340 309 302 359 168 128 219 67 69 79 205 236 207 259 329 336 344 347 344 346 348 335 336 321 338 324 323 329 325 303
335 339 339 347 348 339 194 187 112 62 27 336 336 331 208 128 114 86 101 77 42 5 3 337 324 245 325 40 24 49 39 75 124 199 219 196 204 218 270 259 303 318 329 329 322 333 346 346 332 327 329 338 326 305
346 358 359 359 357 78 146 138 99 56 26 312 15 25 55 83 81 92 70 48 11 344 334 276 321 48 333 65 53 27 57 31 230 212 179 189 197 220 233 272 288 303 318 323 320 333 332 324 324 325 324 335 339 333
359 355 355 6 77 116 104 117 104 51 297 289 93 72 79 84 91 82 54 20 16 21 327 315 56 17 50 66 72 143 188 211 170 186 200 204 203 191 318 291 296 316 310 306 308 305 328 319 326 316 309 348 348 353
359 7 6 26 123 118 87 64 4 276 136 78 91 85 91 102 100 81 46 15 19 10 347 358 326 61 104 87 29 277 122 118 80 62 266 234 227 267 320 313 299 306 317 310 314 317 318 328 331 325 330 337 342 344
0 10 15 38 95 90 65 62 3 359 79 101 120 128 129 98 112 60 350 351 13 351 324 26 68 83 141 118 130 106 75 44 35 27 40 50 294 300 321 315 324 322 330 313 302 38 29 61 56 11 351 345 338 344
356 1 25 68 50 45 50 28 10 13 55 18 94 93 142 159 179 222 295 317 352 11 39 44 107 118 119 127 121 102 80 35 354 354 349 333 345 346 339 320 303 310 92 82 71 57 57 39 355 337 337 332 350 342
23 47 74 97 65 49 40 19 44 22 6 61 98 140 178 224 247 272 127 1 18 67 95 141 138 141 130 122 109 79 76 11 357 343 340 337 359 19 2 14 72 78 76 67 36 25 16 8 2 350 347 342 332 321
33 69 87 66 48 11 30 32 336 324 313 298 291 260 232 101 110 43 340 67 102 135 145 144 139 154 121 109 132 174 32 87 252 311 26 88 65 87 69 51 14 64 65 51 25 10 347 332 323 321 316 318 321 324
47 76 44 41 8 35 358 338 319 255 92 287 292 287 114 81 74 342 345 80 130 149 121 104 98 120 115 119 102 81 73 57 117 80 39 43 43 40 333 128 100 59 14 357 350 344 332 329 329 334 346 354 352 351
37 52 29 6 340 287 252 260 268 285 328 332 354 23 84 110 352 60 40 35 81 103 108 100 103 91 77 33 30 31 38 8 13 8 13 355 54 132 124 82 345 344 342 341 342 343 345 346 350 343 340 340 340 340
28 35 17 315 253 273 232 167 267 20 36 63 56 5 29 151 59 84 99 48 69 78 80 78 67 36 24 40 4 340 358 2 4 23 75 29 1 317 343 349 340 340 339 343 348 338 332 332 336 336 330 328 328 330
59 309 191 324 348 43 358 17 72 31 341 70 351 43 17 23 57 99 115 138 80 38 18 3 357 344 313 280 202 43 27 12 359 6 5 349 340 328 322 322 324 326 330 334 336 329 331 332 329 325 325 325 327 328
344 289 282 286 322 329 12 2 72 51 297 67 55 359 3 355 54 69 133 144 143 312 311 325 325 304 173 143 115 62 4 357 5 8 356 338 331 329 331 333 331 325 323 326 323 321 322 319 318 319 321 319 319 309
302 339 358 4 17 45 35 332 333 22 41 35 37 32 50 63 26 42 109 165 216 237 274 31 86 113 134 129 115 309 317 331 332 330 328 324 336 336 340 339 337 332 331 320 317 316 314 314 316 315 317 313 310 308
287 311 351 331 318 338 230 264 66 79 73 68 76 30 59 82 86 87 83 139 157 155 131 123 112 103 75 18 355 353 343 340 346 349 343 336 333 331 333 329 321 318 317 315 315 319 319 320 319 318 313 310 312 309
274 107 32 325 358 356 41 61 100 97 53 15 340 180 103 90 87 116 119 104 112 111 119 127 116 344 14 1 8 13 349 341 351 351 346 337 327 320 312 310 313 316 317 320 321 321 324 324 320 317 315 321 320 314
326 88 13 280 285 80 23 351 343 338 2 3 352 311 168 124 93 82 86 90 107 119 100 24 11 10 5 3 359 352 343 341 340 331 322 315 309 313 319 320 320 320 320 322 325 325 320 321 318 317 316 314 306 314
333 313 72 340 310 317 1 12 348 325 322 312 304 292 150 127 83 56 31 32 31 29 26 15 5 358 356 349 348 348 345 340 329 319 317 322 326 320 322 324 321 321 323 317 321 320 320 321 314 311 309 305 309 312
338 18 31 23 20 5 356 351 325 295 299 325 307 77 103 86 77 57 23 20 16 12 6 1 357 354 353 350 344 330 324 319 326 337 339 326 322 322 318 318 317 316 313 314 316 316 318 318 315 308 306 307 308 308
Wind_Speed_850mb
14 8 11 17 23 29 36 40 42 37 33 31 27 14 10 14 15 13 5 11 4 7 4 16 20 22 22 15 7 5 6 10 6 3 6 3 3 3 1 5 5 7 8 4 4 3 6 11 6 1 6 8 21 28
13 8 12 18 23 30 37 40 41 33 31 27 27 15 10 10 11 10 16 14 8 3 12 12 5 6 22 28 29 12 7 8 4 7 3 4 2 0 3 3 8 7 8 8 12 9 6 11 24 15 10 20 24 17
11 9 14 19 25 33 38 41 38 28 28 24 26 17 10 6 7 4 13 19 14 15 21 10 4 6 13 13 11 12 12 7 6 1 11 5 2 7 3 2 5 13 3 6 5 3 13 20 14 11 15 17 11 11
9 11 16 20 28 35 39 41 34 25 25 24 26 17 7 7 5 3 8 14 14 3 7 11 17 12 6 17 3 6 5 3 3 5 2 5 3 2 2 5 7 4 7 4 6 8 11 14 21 18 19 17 24 23
10 13 17 23 30 36 39 38 30 24 26 25 26 16 6 7 6 5 4 3 12 3 7 11 17 8 5 4 6 8 10 8 1 4 5 2 2 6 6 7 7 8 2 6 5 3 11 4 14 15 30 26 18 10
10 14 19 26 33 38 39 35 25 25 27 27 22 11 6 6 3 2 8 5 9 12 6 5 12 21 8 3 4 5 3 8 7 5 8 8 9 4 6 5 10 10 28 17 6 14 25 28 24 16 17 12 9 17
9 15 22 29 35 38 37 32 23 25 28 24 11 7 7 5 5 1 2 2 8 17 2 4 4 13 16 12 8 8 1 3 8 9 12 11 23 15 5 4 8 16 11 12 10 11 7 12 12 8 3 6 14 15
12 18 25 32 37 38 33 26 20 23 27 14 7 2 11 6 5 3 4 5 10 7 4 6 6 4 18 8 8 11 11 5 7 11 9 9 10 9 6 7 5 23 4 5 2 2 4 9 14 12 13 11 10 14
16 23 29 34 37 34 30 19 20 26 19 11 2 7 11 4 1 3 8 5 10 7 2 5 7 5 4 5 2 1 6 5 6 9 6 10 7 8 9 23 33 25 13 19 16 16 10 2 9 20 21 15 16 19
18 25 31 34 34 30 26 21 20 17 13 7 6 3 2 2 7 8 4 3 3 3 2 6 3 1 6 6 3 2 2 6 5 0 12 7 2 7 25 39 20 8 6 15 12 10 9 14 13 10 15 23 23 19
24 29 33 35 30 28 23 20 19 13 11 8 6 3 4 3 1 3 4 3 1 6 6 3 5 1 1 4 6 4 4 2 6 4 7 7 7 8 30 44 13 10 13 24 21 19 19 7 20 20 25 22 22 20
27 31 33 28 25 26 17 16 17 15 9 3 4 6 4 2 2 2 4 5 8 3 5 4 8 8 5 4 2 4 5 8 5 7 7 4 8 20 24 31 36 24 17 24 25 13 17 20 22 22 25 28 22 31
28 31 29 17 28 23 10 10 13 10 7 3 4 1 5 2 12 4 3 7 6 5 13 23 14 12 5 4 1 6 6 3 22 6 6 8 11 4 16 18 21 23 27 29 29 29 22 20 21 21 22 17 31 41
30 30 14 24 24 15 9 6 6 5 6 5 2 8 3 6 4 3 7 6 8 7 13 16 10 4 6 4 1 5 5 9 6 5 6 7 19 6 7 15 14 17 20 22 24 25 22 28 28 28 17 26 31 31
29 18 15 27 18 8 10 6 7 7 5 4 3 2 2 5 10 17 29 26 15 13 17 15 8 3 6 5 7 9 9 5 5 5 6 19 17 7 9 7 9 17 25 26 20 18 24 22 25 30 31 32 36 35
24 21 29 28 15 3 13 12 11 8 6 4 6 8 14 27 24 30 26 21 21 15 14 4 2 4 2 5 10 7 5 1 4 7 24 25 18 13 11 10 18 20 27 28 24 21 20 31 30 32 22 32 33 32
19 25 28 22 8 15 11 15 12 3 4 2 5 24 28 19 17 20 19 22 13 10 3 5 1 1 6 7 4 5 7 5 14 20 21 24 19 6 11 17 21 21 25 27 19 14 29 26 27 22 20 24 25 24
23 19 22 15 11 13 15 10 4 4 1 12 13 15 18 15 12 8 12 18 5 8 10 3 10 7 6 3 3 1 18 14 13 19 3 21 22 11 18 19 23 27 32 33 38 32 24 20 23 23 24 27 25 33
22 17 17 11 7 4 4 3 6 6 7 12 11 10 10 20 11 5 5 8 9 11 14 6 9 4 3 10 22 20 18 15 13 17 18 11 6 21 25 25 32 33 47 28 13 3 5 7 13 16 26 29 30 33
13 14 9 12 10 6 5 4 6 6 5 5 5 15 20 10 3 2 7 8 13 9 14 7 5 23 26 21 18 17 10 10 14 18 19 23 32 32 34 32 25 23 13 15 13 9 7 8 15 20 18 17 17 24
10 11 13 12 16 14 5 8 5 6 5 5 5 5 3 5 7 11 5 9 4 6 6 18 33 28 18 14 8 2 9 16 27 23 25 26 19 8 9 9 7 7 8 10 12 18 19 21 21 24 32 35 32 33
15 13 15 13 10 7 2 6 5 7 3 4 3 3 2 7 13 4 8 5 9 14 23 29 22 20 16 13 7 6 1 2 6 8 8 7 7 6 6 10 8 10 13 21 29 27 25 26 31 36 39 45 47 44
10 9 7 7 3 4 3 7 5 3 0 3 2 2 2 6 4 5 3 4 12 24 24 26 29 23 26 28 19 16 16 6 6 4 15 14 10 5 4 2 4 7 11 24 39 38 33 35 37 38 37 38 36 38
10 5 5 6 4 4 3 5 4 5 3 2 2 4 4 4 5 8 9 18 38 44 41 31 24 23 14 12 13 10 8 8 9 16 16 8 3 10 7 4 10 21 35 40 40 39 39 35 29 30 35 36 39 42
6 5 5 5 5 4 6 6 3 3 4 2 3 4 1 4 3 6 4 4 23 27 25 21 20 19 15 7 5 6 7 14 22 17 6 3 2 5 9 15 27 40 44 46 41 32 30 30 31 29 31 37 46 48
5 1 3 7 9 6 7 6 3 5 2 1 4 6 6 5 3 8 6 13 9 8 11 17 19 14 4 3 1 5 13 17 17 19 16 18 21 24 26 31 40 44 45 46 46 40 41 43 40 43 49 54 55 46
5 5 5 4 6 9 9 12 6 4 2 4 3 6 5 6 9 4 14 9 2 2 6 9 12 9 6 11 8 4 7 15 21 22 21 24 25 28 31 38 43 41 40 36 33 34 37 41 47 53 62 63 53 47
6 8 4 20 14 12 5 6 4 4 7 8 6 9 4 4 2 6 3 6 7 10 7 4 7 8 11 9 3 6 15 21 22 23 19 17 25 33 44 50 48 52 51 47 55 56 59 63 65 75 68 58 53 52
6 12 10 10 9 3 4 3 5 8 9 7 5 3 6 12 18 15 10 10 11 9 19 23 24 17 13 11 18 24 31 36 39 42 42 43 49 57 64 64 60 63 68 67 68 67 67 74 79 70 61 53 49 47
5 6 5 7 4 4 9 9 15 12 7 7 4 2 24 22 24 26 23 18 14 19 19 14 7 3 10 14 14 12 14 19 25 31 38 48 57 64 68 71 70 69 70 68 71 76 76 64 56 44 46 54 45 32
8 3 1 4 4 8 12 21 18 12 8 10 11 16 27 25 32 33 34 26 17 10 4 9 16 23 29 35 39 41 45 47 49 53 59 60 65 68 66 64 66 66 66 66 69 68 58 56 56 55 59 52 43 46
11 3 2 3 15 21 22 25 17 19 25 25 27 22 27 16 11 15 38 27 23 26 30 30 35 40 46 48 52 58 59 57 56 62 69 64 52 55 66 62 60 67 64 58 67 64 65 67 61 65 47 46 51 46
14 19 16 13 10 11 23 19 12 9 14 16 32 12 31 15 14 9 31 38 34 35 39 42 42 48 52 46 43 44 55 76 62 48 49 54 64 57 59 63 66 66 64 73 71 67 67 65 59 54 59 56 50 47
Wind_Direction_850mb
233 253 300 311 325 336 340 340 341 341 343 348 351 341 334 342 6 29 110 61 15 64 114 190 179 181 196 170 143 1 343 246 3 50 104 242 126 241 130 250 192 149 134 160 99 210 291 6 37 220 184 111 124 123
236 271 297 312 325 336 338 339 340 338 340 347 350 341 316 342 2 47 94 55 348 245 105 121 202 267 230 225 213 276 292 287 71 87 76 113 203 162 155 287 19 50 170 180 173 221 208 81 117 118 128 133 140 133
244 285 302 310 329 336 336 337 336 332 339 344 349 338 305 318 344 9 87 54 102 149 175 194 161 159 169 182 239 245 218 229 171 93 169 179 102 130 95 313 82 346 80 84 98 295 164 128 119 149 170 141 131 145
264 288 301 319 332 332 334 334 333 331 337 337 341 325 294 286 301 149 94 56 84 102 128 230 167 166 171 190 227 12 87 172 96 224 131 98 113 107 102 135 94 278 10 44 8 22 152 173 179 172 139 134 130 118
269 285 311 327 328 329 332 332 331 331 334 330 332 318 262 258 267 216 195 115 62 42 182 161 190 206 314 196 318 354 27 46 229 151 82 143 70 65 50 83 24 2 236 100 226 348 98 67 153 162 122 113 106 88
267 300 325 326 326 331 331 332 330 329 328 323 322 310 233 231 230 328 151 155 36 11 179 162 175 190 160 162 113 101 84 54 38 71 98 78 41 105 93 102 350 77 81 87 114 84 106 108 105 110 114 110 54 353
286 325 324 323 329 330 332 331 323 324 324 321 313 301 189 181 163 132 139 303 356 356 168 92 210 195 197 232 239 241 160 41 69 65 59 53 10 30 64 101 17 70 104 105 111 114 89 186 157 159 282 308 329 328
331 323 322 328 330 333 333 325 318 324 328 320 277 253 162 158 171 176 52 274 328 341 241 121 254 184 195 226 220 219 208 182 66 91 52 62 48 34 43 292 331 2 106 113 38 211 184 193 194 221 245 265 283 276
334 324 324 329 333 333 332 320 324 337 329 320 277 140 154 148 32 276 315 277 279 287 339 60 140 229 351 359 243 146 182 73 93 79 70 73 357 29 278 316 322 9 98 88 56 41 38 312 263 256 252 262 254 214
317 321 326 332 335 337 336 331 339 359 31 46 75 59 132 179 290 287 258 244 237 223 139 44 24 4 48 42 17 335 99 153 100 167 102 73 263 278 9 357 336 157 167 358 338 328 299 270 288 322 255 260 258 248
320 327 334 338 338 337 333 339 354 16 46 46 14 347 46 78 253 288 286 199 197 39 88 73 46 50 335 79 233 222 185 138 95 214 97 21 321 282 4 20 350 220 288 315 295 270 244 291 297 287 281 275 264 279
326 331 333 334 335 333 324 333 4 23 19 355 310 354 20 320 258 60 276 338 60 193 35 33 349 332 299 300 17 350 77 28 82 94 85 162 254 284 342 11 36 37 31 37 31 344 270 311 277 306 290 277 254 319
329 328 329 333 336 330 290 320 359 359 7 56 49 36 350 253 39 357 42 346 30 41 18 16 355 347 284 264 39 78 78 202 132 65 148 217 265 318 352 358 354 10 11 8 7 5 351 3 5 343 314 297 277 308
329 329 329 338 335 325 232 274 345 11 16 2 274 341 127 348 52 165 162 176 89 52 7 357 340 309 302 359 168 128 219 67 69 79 205 236 207 259 329 336 344 347 344 346 348 335 336 321 338 324 323 329 325 303
335 339 339 347 348 339 194 187 112 62 27 336 336 331 208 128 114 86 101 77 42 5 3 337 324 245 325 40 24 49 39 75 124 199 219 196 204 218 270 259 303 318 329 329 322 333 346 346 332 327 329 338 326 305
346 358 359 359 357 78 146 138 99 56 26 312 15 25 55 83 81 92 70 48 11 344 334 276 321 48 333 65 53 27 57 31 230 212 179 189 197 220 233 272 288 303 318 323 320 333 332 324 324 325 324 335 339 333
359 355 355 6 77 116 104 117 104 51 297 289 93 72 79 84 91 82 54 20 16 21 327 315 56 17 50 66 72 143 188 211 170 186 200 204 203 191 318 291 296 316 310 306 308 305 328 319 326 316 309 348 348 353
359 7 6 26 123 118 87 64 4 276 136 78 91 85 91 102 100 81 46 15 19 10 347 358 326 61 104 87 29 277 122 118 80 62 266 234 227 267 320 313 299 306 317 310 314 317 318 328 331 325 330 337 342 344
0 10 15 38 95 90 65 62 3 359 79 101 120 128 129 98 112 60 350 351 13 351 324 26 68 83 141 118 130 106 75 44 35 27 40 50 294 300 321 315 324 322 330 313 302 38 29 61 56 11 351 345 338 344
356 1 25 68 50 45 50 28 10 13 55 18 94 93 142 159 179 222 295 317 352 11 39 44 107 118 119 127 121 102 80 35 354 354 349 333 345 346 339 320 303 310 92 82 71 57 57 39 355 337 337 332 350 342
23 47 74 97 65 49 40 19 44 22 6 61 98 140 178 224 247 272 127 1 18 67 95 141 138 141 130 122 109 79 76 11 357 343 340 337 359 19 2 14 72 78 76 67 36 25 16 8 2 350 347 342 332 321
33 69 87 66 48 11 30 32 336 324 313 298 291 260 232 101 110 43 340 67 102 135 145 144 139 154 121 109 132 174 32 87 252 311 26 88 65 87 69 51 14 64 65 51 25 10 347 332 323 321 316 318 321 324
47 76 44 41 8 35 358 338 319 255 92 287 292 287 114 81 74 342 345 80 130 149 121 104 98 120 115 119 102 81 73 57 117 80 39 43 43 40 333 128 100 59 14 357 350 344 332 329 329 334 346 354 352 351
37 52 29 6 340 287 252 260 268 285 328 332 354 23 84 110 352 60 40 35 81 103 108 100 103 91 77 33 30 31 38 8 13 8 13 355 54 132 124 82 345 344 342 341 342 343 345 346 350 343 340 340 340 340
28 35 17 315 253 273 232 167 267 20 36 63 56 5 29 151 59 84 99 48 69 78 80 78 67 36 24 40 4 340 358 2 4 23 75 29 1 317 343 349 340 340 339 343 348 338 332 332 336 336 330 328 328 330
59 309 191 324 348 43 358 17 72 31 341 70 351 43 17 23 57 99 115 138 80 38 18 3 357 344 313 280 202 43 27 12 359 6 5 349 340 328 322 322 324 326 330 334 336 329 331 332 329 325 325 325 327 328
344 289 282 286 322 329 12 2 72 51 297 67 55 359 3 355 54 69 133 144 143 312 311 325 325 304 173 143 115 62 4 357 5 8 356 338 331 329 331 333 331 325 323 326 323 321 322 319 318 319 321 319 319 309
302 339 358 4 17 45 35 332 333 22 41 35 37 32 50 63 26 42 109 165 216 237 274 31 86 113 134 129 115 309 317 331 332 330 328 324 336 336 340 339 337 332 331 320 317 316 314 314 316 315 317 313 310 308
287 311 351 331 318 338 230 264 66 79 73 68 76 30 59 82 86 87 83 139 157 155 131 123 112 103 75 18 355 353 343 340 346 349 343 336 333 331 333 329 321 318 317 315 315 319 319 320 319 318 313 310 312 309
274 107 32 325 358 356 41 61 100 97 53 15 340 180 103 90 87 116 119 104 112 111 119 127 116 344 14 1 8 13 349 341 351 351 346 337 327 320 312 310 313 316 317 320 321 321 324 324 320 317 315 321 320 314
326 88 13 280 285 80 23 351 343 338 2 3 352 311 168 124 93 82 86 90 107 119 100 24 11 10 5 3 359 352 343 341 340 331 322 315 309 313 319 320 320 320 320 322 325 325 320 321 318 317 316 314 306 314
333 313 72 340 310 317 1 12 348 325 322 312 304 292 150 127 83 56 31 32 31 29 26 15 5 358 356 349 348 348 345 340 329 319 317 322 326 320 322 324 321 321 323 317 321 320 320 321 314 311 309 305 309 312
338 18 31 23 20 5 356 351 325 295 299 325 307 77 103 86 77 57 23 20 16 12 6 1 357 354 353 350 344 330 324 319 326 337 339 326 322 322 318 318 317 316 313 314 316 316 318 318 315 308 306 307 308 308